Location: Congrier
(47.8099°N, 1.1170°W)
Time: 23:37:24
(UTC+00:00)

Okean O Rocket - Pass Details

Date: 28 January 2023
Orbit: 620 x 643 km, 98.1° (Epoch: 01 April)

Event Time Altitude Azimuth Distance (km) Brightness Sun altitude
Exits shadow 18:47:31 12° 146° (SE) 1,843 3.7 -18.3°
Maximum altitude 18:51:21 54° 71° (ENE) 775 1.6 -18.9°
Drops below altitude 10° 18:55:40 10° 355° (N) 2,031 4.2 -19.7°
Sets 18:57:55 0° 351° (N) 2,949 5.1 -20.0°
